Weather reports worldwide

Advertisment
Leconfield, United Kingdom (3382): temperature & dewpoint: 16.06.2018 06:00:00 - 22.06.2018 06:00:00 (BST)Leconfield, United Kingdom (3382): temperature -20cm & temperature -100cm: 16.06.2018 06:00:00 - 22.06.2018 06:00:00 (BST)Leconfield, United Kingdom (3382): wind speed & gusts: 16.06.2018 06:00:00 - 22.06.2018 06:00:00 (BST)Leconfield, United Kingdom (3382): wind direction: 16.06.2018 06:00:00 - 22.06.2018 06:00:00 (BST)Leconfield, United Kingdom (3382): reduced air pressure: 16.06.2018 06:00:00 - 22.06.2018 06:00:00 (BST)Leconfield, United Kingdom (3382): visibility: 16.06.2018 06:00:00 - 22.06.2018 06:00:00 (BST)Leconfield, United Kingdom (3382): sunshine duration: 16.06.2018 06:00:00 - 22.06.2018 06:00:00 (BST)Leconfield, United Kingdom (3382): precipitation: 16.06.2018 06:00:00 - 22.06.2018 06:00:00 (BST)
Date & Time tt [°C] td [°C] tt -20cm [°C] tt -100cm [°C] ff [km/h] ff [kn] fx [km/h] fx [kn] dd ppp [hPa] vv [km] sd [min] rr [mm]
22.06.2018 06:00:00 10,2 5,2 - - 13 7 - - WNW 1029,5 10 60 0,0
22.06.2018 05:00:00 8,3 5,0 - - 9 5 - - W 1029,1 10 0 0,0
22.06.2018 04:00:00 9,6 5,5 - - 9 5 - - WNW 1028,9 10 0 0,0
22.06.2018 03:00:00 10,5 6,3 - - 9 5 - - WNW 1028,6 10 0 0,0
22.06.2018 02:00:00 10,3 6,4 - - 11 6 - - W 1028,4 10 0 0,0
22.06.2018 01:00:00 10,3 7,0 - - 11 6 - - W 1028,2 10 - 0,0
22.06.2018 00:00:00 9,6 6,9 - - 4 2 - - W 1028,1 10 0 0,0
21.06.2018 23:00:00 11,5 6,8 - - 0 0 - - N 1028,1 10 0 0,0
21.06.2018 22:00:00 12,8 6,9 - - 0 0 - - N 1028,0 10 0 0,0
21.06.2018 21:00:00 13,8 5,8 - - 4 2 - - ESE 1027,6 10 0 0,0
21.06.2018 20:00:00 15,2 5,8 - - 11 6 - - ENE 1027,2 10 18 0,0
21.06.2018 19:00:00 16,2 6,5 - - 5 3 - - SE 1026,7 10 12 0,0
21.06.2018 18:00:00 15,4 6,3 - - 9 5 - - E 1026,5 10 18 0,0
21.06.2018 17:00:00 17,6 4,2 - - 18 10 - - NW 1026,2 10 24 0,0
21.06.2018 16:00:00 17,5 3,4 - - 16 9 - - WNW 1025,9 10 36 0,0
21.06.2018 15:00:00 15,6 3,2 - - 15 8 - - NNW 1025,5 10 30 0,0
21.06.2018 14:00:00 16,7 4,1 - - 18 10 - - NNW 1025,4 10 30 0,0
21.06.2018 13:00:00 15,4 3,3 - - 18 10 - - NW 1025,3 10 24 0,0
21.06.2018 12:00:00 14,0 4,1 - - 16 9 - - NW 1025,1 10 18 0,0
21.06.2018 11:00:00 14,2 4,9 - - 16 9 - - NNW 1024,4 10 24 0,0
21.06.2018 10:00:00 13,2 4,1 15,7 14,0 21 11 - - NNW 1023,7 10 24 0,0
21.06.2018 09:00:00 12,4 4,1 - - 24 13 - - NNW 1022,7 10 60 0,0
21.06.2018 08:00:00 11,5 4,5 - - 24 13 - - NW 1022,1 10 60 0,0
21.06.2018 07:00:00 10,4 4,9 - - 21 11 - - WNW 1021,1 10 60 0,0
21.06.2018 06:00:00 9,6 4,5 - - 18 10 - - WNW 1020,3 10 54 0,0
21.06.2018 05:00:00 8,9 5,0 - - 16 9 - - W 1019,7 10 0 0,0
21.06.2018 04:00:00 9,2 5,5 - - 16 9 - - W 1019,5 10 0 0,0
21.06.2018 03:00:00 9,0 5,3 - - 11 6 - - W 1019,4 10 0 0,0
21.06.2018 02:00:00 10,6 4,3 - - 13 7 - - W 1019,4 10 0 0,0
21.06.2018 01:00:00 12,0 4,1 - - 15 8 - - WNW 1019,2 10 - 0,0
21.06.2018 00:00:00 13,1 3,8 - - 21 11 - - WNW 1018,9 10 0 0,0
20.06.2018 23:00:00 12,8 8,5 - - 5 3 - - WNW 1018,8 10 0 0,0
20.06.2018 22:00:00 12,6 9,1 - - 2 1 - - E 1018,5 10 0 0,0
20.06.2018 21:00:00 13,1 8,6 - - 5 3 - - E 1018,0 10 0 0,0
20.06.2018 20:00:00 13,8 8,9 - - 9 5 - - ENE 1017,6 10 0 0,0
20.06.2018 19:00:00 15,4 9,7 - - 9 5 - - NE 1017,6 10 42 0,0
20.06.2018 18:00:00 15,7 11,2 - - 9 5 - - NE 1017,3 10 6 0,0
20.06.2018 17:00:00 15,4 10,7 - - 21 11 - - NE 1016,9 10 0 0,0
20.06.2018 16:00:00 19,9 12,2 - - 21 11 - - W 1016,2 10 0 0,0
20.06.2018 15:00:00 19,7 13,7 - - 22 12 - - W 1015,9 10 0 0,0
20.06.2018 14:00:00 19,6 13,9 - - 24 13 - - W 1015,4 10 0 0,0
20.06.2018 13:00:00 20,3 14,2 - - 26 14 50 27 W 1015,0 10 6 0,0
20.06.2018 12:00:00 21,6 14,1 - - 31 17 54 29 WSW 1014,3 10 42 0,0
20.06.2018 11:00:00 20,6 15,2 - - 34 18 54 29 WSW 1014,3 10 12 0,0
20.06.2018 10:00:00 20,6 15,1 16,2 14,0 29 16 55 30 SW 1013,8 10 18 0,2
20.06.2018 09:00:00 20,1 14,8 - - 29 16 48 26 SW 1013,8 10 60 0,0
20.06.2018 08:00:00 18,4 14,5 - - 24 13 - - SW 1014,5 10 18 0,0
20.06.2018 07:00:00 18,1 14,3 - - 24 13 - - SSW 1014,6 10 24 0,0
20.06.2018 06:00:00 17,2 13,8 - - 22 12 - - SSW 1014,9 10 12 0,0
20.06.2018 05:00:00 16,4 13,3 - - 18 10 - - SSW 1015,1 10 0 0,0
20.06.2018 04:00:00 16,2 13,7 - - 15 8 - - SW 1015,5 10 0 0,0
20.06.2018 03:00:00 16,0 13,8 - - 11 6 - - SW 1016,1 10 0 0,0
20.06.2018 02:00:00 17,1 14,2 - - 11 6 - - SW 1016,7 50 0 0,0
20.06.2018 01:00:00 17,9 14,5 - - 11 6 - - SSW 1017,2 10 - 0,0
20.06.2018 00:00:00 19,4 15,0 - - 21 11 - - SW 1017,4 10 0 0,0
19.06.2018 23:00:00 18,3 15,3 - - 11 6 - - SSW 1017,7 10 0 0,0
19.06.2018 22:00:00 19,4 14,8 - - 22 12 - - SW 1017,7 10 0 0,0
19.06.2018 21:00:00 20,2 15,2 - - 15 8 - - SW 1017,5 10 18 0,0
19.06.2018 20:00:00 21,0 15,6 - - 9 5 - - WSW 1017,9 10 24 0,0
19.06.2018 19:00:00 21,0 15,8 - - 5 3 - - W 1018,2 10 6 0,0
19.06.2018 18:00:00 20,2 15,3 - - 9 5 - - WSW 1018,6 10 0 0,0
19.06.2018 17:00:00 20,0 14,4 - - 13 7 - - SW 1019,1 45 0 0,0
19.06.2018 16:00:00 19,6 12,3 - - 9 5 - - SW 1019,5 10 0 0,0
19.06.2018 15:00:00 20,0 10,5 - - 11 6 - - SW 1019,7 10 0 0,0
19.06.2018 14:00:00 20,1 9,4 - - 13 7 - - SSW 1020,0 10 6 0,0
19.06.2018 13:00:00 19,5 9,1 - - 16 9 - - WSW 1020,5 10 30 0,0
19.06.2018 12:00:00 18,8 8,6 - - 15 8 - - WSW 1020,8 10 60 0,0
19.06.2018 11:00:00 17,7 8,7 - - 16 9 - - W 1021,0 10 60 0,0
19.06.2018 10:00:00 16,6 8,5 15,7 13,9 18 10 - - W 1021,1 10 60 0,0
19.06.2018 09:00:00 15,4 8,7 - - 18 10 - - W 1021,0 10 54 0,0
19.06.2018 08:00:00 13,5 8,9 - - 16 9 - - W 1020,7 10 36 0,0
19.06.2018 07:00:00 12,9 8,9 - - 11 6 - - W 1020,1 10 6 0,0
19.06.2018 06:00:00 12,5 8,8 - - 8 4 - - W 1019,6 10 36 0,0
19.06.2018 05:00:00 12,6 9,4 - - 15 8 - - W 1018,8 10 0 0,0
19.06.2018 04:00:00 14,0 12,2 - - 16 9 - - W 1017,9 30 0 0,0
19.06.2018 03:00:00 14,8 13,1 - - 9 5 - - W 1017,4 30 0 0,0
19.06.2018 02:00:00 15,9 14,1 - - 13 7 - - W 1017,1 40 0 0,0
19.06.2018 01:00:00 15,9 14,7 - - 18 10 - - W 1016,3 6 - 0,0
19.06.2018 00:00:00 17,3 14,9 - - 21 11 - - WSW 1015,7 10 0 0,0
18.06.2018 23:00:00 17,7 14,5 - - 15 8 - - SW 1015,5 10 0 0,0
18.06.2018 22:00:00 18,1 14,1 - - 13 7 - - SW 1015,2 10 0 0,0
18.06.2018 21:00:00 18,8 13,7 - - 16 9 - - WSW 1014,7 10 0 0,0
18.06.2018 20:00:00 19,2 12,9 - - 21 11 - - SW 1014,6 10 24 0,0
18.06.2018 19:00:00 19,6 12,0 - - 24 13 - - WSW 1014,4 10 36 0,0
18.06.2018 18:00:00 20,4 11,9 - - 24 13 50 27 W 1014,3 10 54 0,0
18.06.2018 17:00:00 19,9 11,0 - - 22 12 - - WSW 1014,5 10 48 0,0
18.06.2018 16:00:00 20,7 10,1 - - 24 13 - - W 1014,4 10 54 0,0
18.06.2018 15:00:00 20,5 9,6 - - 22 12 - - W 1014,9 45 60 0,0
18.06.2018 14:00:00 20,2 9,1 - - 26 14 - - W 1015,2 10 60 0,0
18.06.2018 13:00:00 19,0 9,5 - - 24 13 48 26 WSW 1015,0 10 60 0,0
18.06.2018 12:00:00 18,1 9,3 - - 24 13 - - W 1014,9 10 30 0,0
18.06.2018 11:00:00 17,6 10,3 - - 28 15 - - WSW 1014,7 10 36 0,0
18.06.2018 10:00:00 17,1 9,7 15,5 13,7 24 13 - - W 1014,7 10 42 0,0
18.06.2018 09:00:00 16,1 10,6 - - 18 10 - - W 1014,7 10 42 0,0
18.06.2018 08:00:00 15,8 11,2 - - 18 10 - - WSW 1014,0 10 30 0,0
18.06.2018 07:00:00 15,6 12,1 - - 15 8 - - WSW 1013,6 10 12 0,0
18.06.2018 06:00:00 15,3 12,7 - - 13 7 - - WSW 1013,1 10 6 0,0
18.06.2018 05:00:00 15,0 13,4 - - 5 3 - - S 1012,8 10 0 0,0
18.06.2018 04:00:00 15,2 13,4 - - 8 4 - - SSE 1012,1 10 0 0,0
18.06.2018 03:00:00 14,8 13,5 - - 9 5 - - SSW 1012,5 10 0 0,0
18.06.2018 02:00:00 15,0 13,6 - - 9 5 - - SW 1012,2 10 0 0,0
18.06.2018 01:00:00 15,6 14,1 - - 13 7 - - SSW 1012,0 10 - 0,0
18.06.2018 00:00:00 15,2 13,7 - - 13 7 - - SSW 1012,2 10 0 0,0
17.06.2018 23:00:00 15,3 13,6 - - 15 8 - - SSW 1012,2 10 0 0,0
17.06.2018 22:00:00 14,9 13,6 - - 16 9 - - SSW 1012,2 10 0 0,0
17.06.2018 21:00:00 15,0 13,3 - - 21 11 - - SSW 1012,2 8 0 0,0
17.06.2018 20:00:00 16,1 12,4 - - 16 9 - - SSW 1012,3 10 0 0,0
17.06.2018 19:00:00 17,1 11,6 - - 21 11 - - SSW 1012,3 10 6 0,0
17.06.2018 18:00:00 17,4 10,9 - - 22 12 - - SW 1012,3 10 6 0,0
17.06.2018 17:00:00 18,3 10,4 - - 22 12 - - SW 1012,5 10 0 0,0
17.06.2018 16:00:00 18,1 10,1 - - 22 12 - - SSW 1012,6 10 0 0,0
17.06.2018 15:00:00 18,2 10,0 - - 16 9 - - WSW 1012,7 10 6 0,0
17.06.2018 14:00:00 17,3 9,6 - - 18 10 - - WSW 1012,7 10 0 0,0
17.06.2018 13:00:00 17,2 9,0 - - 21 11 - - SW 1012,5 10 18 0,0
17.06.2018 12:00:00 16,7 10,4 - - 21 11 - - WSW 1012,8 10 12 0,0
17.06.2018 11:00:00 16,9 11,0 - - 21 11 - - WSW 1012,5 10 30 0,0
17.06.2018 10:00:00 15,9 10,4 15,2 13,7 18 10 - - WSW 1012,5 10 18 0,0
17.06.2018 09:00:00 14,8 11,0 - - 21 11 - - SW 1012,4 10 18 0,0
17.06.2018 08:00:00 14,2 10,9 - - 16 9 - - WSW 1011,9 10 12 0,0
17.06.2018 07:00:00 12,9 10,2 - - 15 8 - - WSW 1011,6 10 0 0,0
17.06.2018 06:00:00 12,4 10,1 - - 13 7 - - SW 1011,2 10 0 0,0
17.06.2018 05:00:00 12,4 10,1 - - 13 7 - - WSW 1010,9 10 0 0,0
17.06.2018 04:00:00 11,8 10,1 - - 13 7 - - SW 1010,8 10 0 0,0
17.06.2018 03:00:00 11,1 9,4 - - 9 5 - - SW 1010,9 10 0 0,0
17.06.2018 02:00:00 10,9 9,0 - - 11 6 - - SW 1010,8 10 0 0,0
17.06.2018 01:00:00 12,5 9,3 - - 16 9 - - SW 1010,3 10 - 0,0
17.06.2018 00:00:00 11,9 9,7 - - 11 6 - - SW 1010,0 10 0 0,0
16.06.2018 23:00:00 12,3 9,9 - - 11 6 - - SW 1009,8 10 0 0,0
16.06.2018 22:00:00 12,8 9,3 - - 13 7 - - W 1009,8 10 0 0,0
16.06.2018 21:00:00 14,5 9,9 - - 11 6 - - W 1009,5 10 54 0,0
16.06.2018 20:00:00 15,6 11,3 - - 15 8 - - W 1009,0 10 36 0,0
16.06.2018 19:00:00 15,0 12,8 - - 13 7 - - W 1008,4 10 0 3,6
16.06.2018 18:00:00 17,2 12,2 - - 15 8 - - S 1007,6 10 0 0,0
16.06.2018 17:00:00 19,4 11,1 - - 21 11 - - S 1008,1 10 36 0,0
16.06.2018 16:00:00 18,5 11,5 - - 21 11 - - SW 1009,0 10 6 0,0
16.06.2018 15:00:00 17,5 10,4 - - 22 12 - - SSW 1009,5 10 12 0,0
16.06.2018 14:00:00 18,2 10,3 - - 24 13 - - SW 1010,0 10 6 0,0
16.06.2018 13:00:00 16,9 10,0 - - 22 12 - - SW 1010,7 10 6 0,0
16.06.2018 12:00:00 16,0 9,3 - - 21 11 - - SW 1011,1 10 0 0,0
16.06.2018 11:00:00 15,3 8,6 - - 18 10 - - SSW 1011,4 10 48 0,0
16.06.2018 10:00:00 14,5 10,7 15,2 13,7 15 8 - - SSW 1012,0 10 6 0,0
16.06.2018 09:00:00 13,0 9,7 - - 9 5 - - SSW 1012,5 10 0 0,0
16.06.2018 08:00:00 12,6 9,7 - - 4 2 - - SSW 1012,6 10 0 0,0
16.06.2018 07:00:00 11,4 9,9 - - 0 0 - - N 1012,6 10 0 0,0
16.06.2018 06:00:00 10,4 9,1 - - 0 0 - - N 1012,5 29 0 0,0

tt = temperature
td = dewpoint
tt -20cm = temperature -20cm
tt -100cm = temperature -100cm
ff = wind speed
fx = gusts
dd = wind direction
ppp = reduced air pressure
vv = visibility
sd = sunshine duration
rr = precipitation

Next stations